Lid_Strength_Index
11 10 11 10 9 8 7 8 8 8 8 7 8 7 7 7 7 8 7 5 4 4 4 2 -0 -0 -0
13 12 12 10 10 10 9 8 8 8 8 8 8 8 7 7 7 7 7 7 5 4 4 4 1 -0 -0
14 12 12 11 11 10 9 9 8 7 7 8 8 7 7 7 6 6 6 6 5 4 3 3 2 0 -0
13 13 13 11 11 12 11 10 10 7 7 7 8 8 7 7 7 6 7 7 7 6 4 3 3 2 1
14 14 13 13 13 11 11 11 10 8 8 8 9 10 10 8 8 7 7 8 8 7 5 2 3 3 2
14 14 14 13 12 12 12 12 13 9 9 9 8 10 10 9 7 6 5 5 6 7 6 2 3 3 3
12 12 13 12 11 12 12 11 11 10 9 10 7 10 9 8 7 6 5 5 4 5 5 3 2 3 3
11 10 10 10 10 10 10 10 9 9 9 11 8 9 9 9 8 7 6 5 5 4 4 4 3 3 4
8 7 7 7 8 9 10 11 12 10 9 10 9 9 9 10 10 7 6 5 5 3 4 4 3 4 4
10 8 6 7 6 7 9 11 10 11 9 10 10 8 11 9 8 8 7 6 5 3 3 3 3 3 3
10 8 8 7 7 7 6 8 9 9 7 8 9 9 9 10 9 8 9 9 8 3 2 3 3 3 4
9 9 8 8 7 7 7 5 5 7 6 7 9 7 8 9 11 10 9 10 9 9 3 3 3 3 3
8 7 7 7 7 7 6 5 5 6 6 6 7 8 7 9 10 11 10 11 10 9 4 4 4 4 6
7 7 7 7 7 7 7 6 6 7 6 6 7 7 9 8 9 12 11 12 11 9 5 5 6 6 7
7 7 6 6 6 6 6 6 8 8 8 7 8 9 10 10 13 10 10 11 11 11 8 9 9 8 9
6 6 6 6 6 6 6 7 8 8 9 8 9 11 11 11 6 10 10 10 10 11 9 10 12 11 9
7 7 5 5 6 7 7 8 8 8 9 8 9 12 15 15 8 6 9 9 10 11 10 10 12 12 10